Dublin, Ireland

12:54 PM IST on August 28, 2016 (GMT +0100)
Dublin International

Weather History for EIDW - December, 2012

Change the Weather History Date:

Thursday, December 20, 2012

  Actual Average Record
Temperature  
Mean Temperature 44 °F -  
Max Temperature 46 °F 46 °F 53 °F (2008)
Min Temperature 42 °F 37 °F 15 °F (2010)
Degree Days  
Heating Degree Days 21    
Moisture  
Dew Point 44 °F    
Average Humidity 98    
Maximum Humidity 100    
Minimum Humidity 92    
Precipitation  
Precipitation 0.08 in 0.09 in - ()
Sea Level Pressure  
Sea Level Pressure 29.50 in    
Wind  
Wind Speed 8 mph ()    
Max Wind Speed 14 mph    
Max Gust Speed -    
Visibility 4.6 miles    
Events Fog , Rain    
Averages and records for this station are not official NWS values.
T = Trace of Precipitation, MM = Missing Value Source: Averaged Metar Reports

Daily Weather History Graph

Daily Weather History Graph

Search for Another Location

Airport or City:

Trip Planner

Search our weather history database for the weather conditions in past years. The results will help you decide how hot, cold, wet, or windy it might be!

Date:

Astronomy

Dec. 20, 2012 Rise Set
Actual Time 8:38 AM GMT 4:07 PM GMT
Civil Twilight 7:55 AM GMT 4:50 PM GMT
Nautical Twilight 7:09 AM GMT 5:36 PM GMT
Astronomical Twilight 6:27 AM GMT 6:18 PM GMT
Moon 12:04 PM GMT (12/20) 12:21 AM GMT (12/20)
Length of Visible Light 8h 55m
Length of Day
7h 29m
First Quarter, 53% of the Moon is Illuminated
Dec 20
First Quarter
Dec 28
Full
Jan 5
Last Quarter
Jan 11
New
Jan 18
First Quarter

Hourly Weather History & Observations

Time (GMT) Temp. Windchill Dew Point Humidity Pressure Visibility Wind Dir Wind Speed Gust Speed Precip Events Conditions
12:00 AM 46 °F - 45 °F 96% 29.65 in 1 mi ESE 8.9 mph - - Fog Patches of Fog
12:00 AM 44.6 °F 39.7 °F 44.6 °F 100% 29.62 in 0.9 mi ESE 9.2 mph - N/A Fog Shallow Fog
12:30 AM 46.4 °F 40.7 °F 46.4 °F 100% 29.62 in 2.2 mi ESE 12.7 mph - N/A   Mostly Cloudy
1:00 AM 46.4 °F 40.7 °F 46.4 °F 100% 29.62 in 3.7 mi SE 12.7 mph - N/A   Mostly Cloudy
1:30 AM 46.4 °F 41.1 °F 46.4 °F 100% 29.59 in 3.7 mi SE 11.5 mph - N/A   Mostly Cloudy
2:00 AM 46.4 °F 40.4 °F 46.4 °F 100% 29.59 in 5.0 mi SE 13.8 mph - N/A   Mostly Cloudy
2:30 AM 46.4 °F 41.5 °F 46.4 °F 100% 29.59 in 5.0 mi SE 10.4 mph - N/A   Mostly Cloudy
3:00 AM 46.4 °F 42.4 °F 46.4 °F 100% 29.56 in 5.0 mi SE 8.1 mph - N/A   Mostly Cloudy
3:30 AM 46.4 °F 41.9 °F 46.4 °F 100% 29.56 in 5.0 mi ESE 9.2 mph - N/A   Mostly Cloudy
4:00 AM 46.4 °F 42.4 °F 46.4 °F 100% 29.53 in 6.2 mi ESE 8.1 mph - N/A   Mostly Cloudy
4:30 AM 46.4 °F 42.4 °F 46.4 °F 100% 29.53 in 5.0 mi ESE 8.1 mph - N/A   Mostly Cloudy
5:00 AM 46.4 °F 43.5 °F 46.4 °F 100% 29.50 in 1.2 mi East 5.8 mph - N/A   Mostly Cloudy
5:30 AM 46.4 °F 44.3 °F 46.4 °F 100% 29.50 in 0.7 mi East 4.6 mph - N/A   Mostly Cloudy
6:00 AM 46 °F - 46 °F 100% 29.51 in 0 mi NE 6.7 mph - - Fog Partial Fog
6:00 AM 46.4 °F 43.5 °F 46.4 °F 100% 29.50 in 0.5 mi NE 5.8 mph - N/A Fog Fog
6:30 AM 46.4 °F 42.9 °F 46.4 °F 100% 29.47 in 0.7 mi NE 6.9 mph - N/A   Light Drizzle
7:00 AM 46.4 °F 43.5 °F 46.4 °F 100% 29.47 in 1.1 mi NE 5.8 mph - N/A   Drizzle
7:30 AM 46.4 °F 42.9 °F 46.4 °F 100% 29.47 in 1.6 mi NNE 6.9 mph - N/A   Drizzle
8:00 AM 46.4 °F 42.4 °F 46.4 °F 100% 29.44 in 2.2 mi North 8.1 mph - N/A   Drizzle
8:30 AM 46.4 °F 42.4 °F 44.6 °F 93% 29.44 in 5.0 mi NE 8.1 mph - N/A Rain Light Rain
9:00 AM 44.6 °F 39.7 °F 44.6 °F 100% 29.44 in 5.0 mi NNE 9.2 mph - N/A Rain Light Rain
9:30 AM 44.6 °F 40.2 °F 44.6 °F 100% 29.44 in 4.3 mi NNE 8.1 mph - N/A Rain Light Rain
10:00 AM 44.6 °F 40.2 °F 44.6 °F 100% 29.44 in 4.3 mi North 8.1 mph - N/A Rain Light Rain
10:30 AM 44.6 °F 40.2 °F 44.6 °F 100% 29.44 in 3.7 mi North 8.1 mph - N/A Rain Light Rain
11:00 AM 44.6 °F 40.2 °F 44.6 °F 100% 29.44 in 5.0 mi North 8.1 mph - N/A Rain Light Rain
11:30 AM 44.6 °F 40.7 °F 44.6 °F 100% 29.44 in 5.6 mi North 6.9 mph - N/A Rain Light Rain
12:00 PM 45 °F - 43 °F 92% 29.45 in 7 mi NNW 8.9 mph - - Rain Light Rain
12:00 PM 44.6 °F 39.7 °F 42.8 °F 93% 29.42 in 6.2 mi NNW 9.2 mph - N/A   Mostly Cloudy
12:30 PM 44.6 °F 39.7 °F 42.8 °F 93% 29.42 in 6.2 mi NW 9.2 mph - N/A   Mostly Cloudy
1:00 PM 44.6 °F 39.7 °F 42.8 °F 93% 29.42 in 6.2 mi NW 9.2 mph - N/A   Mostly Cloudy
1:30 PM 44.6 °F 39.2 °F 42.8 °F 93% 29.42 in 6.2 mi NW 10.4 mph - N/A   Mostly Cloudy
2:00 PM 44.6 °F 39.7 °F 42.8 °F 93% 29.42 in 6.2 mi NW 9.2 mph - N/A   Mostly Cloudy
2:30 PM 44.6 °F 39.2 °F 42.8 °F 93% 29.44 in 6.2 mi WNW 10.4 mph - N/A   Mostly Cloudy
3:00 PM 44.6 °F 40.2 °F 42.8 °F 93% 29.42 in 6.2 mi WNW 8.1 mph - N/A   Mostly Cloudy
3:30 PM 44.6 °F 40.2 °F 42.8 °F 93% 29.44 in 6.2 mi WNW 8.1 mph - N/A   Mostly Cloudy
4:00 PM 44.6 °F 39.7 °F 42.8 °F 93% 29.44 in 6.2 mi West 9.2 mph - N/A   Mostly Cloudy
4:30 PM 42.8 °F 37.5 °F 42.8 °F 100% 29.44 in 6.2 mi West 9.2 mph - N/A   Mostly Cloudy
5:00 PM 42.8 °F 38.0 °F 42.8 °F 100% 29.44 in 6.2 mi West 8.1 mph - N/A   Mostly Cloudy
5:30 PM 42.8 °F 38.0 °F 42.8 °F 100% 29.47 in 6.2 mi West 8.1 mph - N/A   Mostly Cloudy
6:00 PM 44 °F - 42 °F 92% 29.49 in 16 mi West 11.2 mph - -   Partly Cloudy
6:00 PM 42.8 °F 36.6 °F 42.8 °F 100% 29.47 in 6.2 mi West 11.5 mph - N/A   Mostly Cloudy
6:30 PM 42.8 °F 37.0 °F 42.8 °F 100% 29.47 in 6.2 mi West 10.4 mph - N/A   Mostly Cloudy
7:00 PM 42.8 °F 37.0 °F 42.8 °F 100% 29.50 in 6.2 mi West 10.4 mph - N/A   Mostly Cloudy
7:30 PM 42.8 °F 37.0 °F 42.8 °F 100% 29.50 in 6.2 mi West 10.4 mph - N/A   Mostly Cloudy
8:00 PM 42.8 °F 37.5 °F 42.8 °F 100% 29.50 in 6.2 mi West 9.2 mph - N/A   Mostly Cloudy
8:30 PM 42.8 °F 37.5 °F 42.8 °F 100% 29.53 in 6.2 mi West 9.2 mph - N/A   Mostly Cloudy
9:00 PM 44.6 °F 40.2 °F 42.8 °F 93% 29.53 in 5.6 mi WNW 8.1 mph - N/A   Mostly Cloudy
9:30 PM 42.8 °F 38.6 °F 42.8 °F 100% 29.53 in 3.7 mi WNW 6.9 mph - N/A   Mostly Cloudy
10:00 PM 42.8 °F 37.0 °F 42.8 °F 100% 29.53 in 3.7 mi West 10.4 mph - N/A   Mostly Cloudy
10:30 PM 42.8 °F 37.0 °F 42.8 °F 100% 29.56 in 3.1 mi West 10.4 mph - N/A   Mostly Cloudy
11:00 PM 42.8 °F 37.0 °F 42.8 °F 100% 29.56 in 3.1 mi West 10.4 mph - N/A Rain Light Rain
11:30 PM 42.8 °F 37.5 °F 42.8 °F 100% 29.56 in 3.1 mi West 9.2 mph - N/A Rain Light Rain